Regional Weather Roundup
Issued by NWS

Home | Current Version | Previous Version | Graphics & Text | Print | Product List | Glossary On
Versions: 1 2 3 4 5 6 7 8 9 10 11 12 13 14 15 16 17 18 19 20 21 22 23 24 25 26 27 28 29 30 31 32 33 34 35 36 37 38 39 40 41 42 43 44 45 46 47 48 49 50
000
ASUS43 KMKX 180611
RWRWI

WISCONSIN REGIONAL WEATHER ROUNDUP
NATIONAL WEATHER SERVICE MILWAUKEE/SULLIVAN WI
100 AM CDT FRI AUG 18 2017

NOTE: "FAIR" INDICATES FEW OR NO CLOUDS BELOW 12,000 FEET WITH NO
SIGNIFICANT WEATHER AND/OR OBSTRUCTIONS TO VISIBILITY.

WIZ001-002-006>008-014>016-023>028-180700-
NORTHWEST WISCONSIN

CITY           SKY/WX    TMP DP  RH WIND       PRES   REMARKS
SUPERIOR ARPT    N/A     59  57  93 W3        29.79R
6HR MIN TEMP:  59; 6HR MAX TEMP:  65;

ASHLAND        CLOUDY    63  59  87 W7        29.75S
6HR MIN TEMP:  62; 6HR MAX TEMP:  63;

HAYWARD        CLOUDY    62  58  86 VRB5      29.79S
6HR MIN TEMP:  62; 6HR MAX TEMP:  63; 6HR PCP: TRACE;

SIREN          CLEAR     59  58  95 CALM      29.82F
6HR MIN TEMP:  59; 6HR MAX TEMP:  64;

CUMBERLAND     PTCLDY    59  57  94 NW8       29.81S
RICE LAKE      PTCLDY    61  58  89 W5        29.82S FOG
6HR MIN TEMP:  61; 6HR MAX TEMP:  64;

CHETEK         MOCLDY    63  59  87 W8        29.80S
6HR MIN TEMP:  63; 6HR MAX TEMP:  65;

LADYSMITH      CLOUDY    63  60  90 NW8       29.79S
6HR MIN TEMP:  63; 6HR MAX TEMP:  64; 6HR PCP:  0.01;

EAU CLAIRE     CLOUDY    65  59  81 NW13G22   29.79S
6HR MIN TEMP:  64; 6HR MAX TEMP:  66;

MENOMONIE      CLOUDY    65  60  82 W7        29.81S
6HR MIN TEMP:  65; 6HR MAX TEMP:  67;

NEW RICHMOND   CLEAR     61  59  93 NW3       29.83F
6HR MIN TEMP:  61; 6HR MAX TEMP:  67;

OSCEOLA        CLEAR     62  62 100 CALM      29.84F
6HR MIN TEMP:  61; 6HR MAX TEMP:  69;

$$

WIZ003>005-009-010-017-018-180700-
NORTH CENTRAL WISCONSIN

CITY           SKY/WX    TMP DP  RH WIND       PRES   REMARKS
MANITOWISH WTR DRIZZLE   59  59 100 NW9G16    29.71S
6HR MIN TEMP:  58; 6HR MAX TEMP:  60;

ARBOR VITAE    CLOUDY    62  60  94 NW9G18    29.71R
6HR MIN TEMP:  61; 6HR MAX TEMP:  62;

WOODRUFF       CLOUDY    62  60  94 NW9G18    29.71R
6HR MIN TEMP:  61; 6HR MAX TEMP:  62;

RHINELANDER    CLOUDY    60  60 100 NW7G18    29.71R
6HR MIN TEMP:  60; 6HR MAX TEMP:  66; 6HR PCP:  0.01;

EAGLE RIVER    CLOUDY    60  59  99 NW8G18    29.69S
6HR MIN TEMP:  58; 6HR MAX TEMP:  64;

LAND O LAKES   CLOUDY    60  59  97 NW9       29.70S FOG
6HR MIN TEMP:  59; 6HR MAX TEMP:  65;

PHILLIPS       CLOUDY    60  60  99 NW8       29.75R
6HR MIN TEMP:  60; 6HR MAX TEMP:  61;

TOMAHAWK         N/A     60  57  90 NW10G16   29.73S
6HR MIN TEMP:  59; 6HR MAX TEMP:  64;

MEDFORD        CLOUDY    60  59  95 NW14      29.75S
6HR MIN TEMP:  60; 6HR MAX TEMP:  62; 6HR PCP:  0.01;

MERRILL        CLOUDY    61  61 100 NW5       29.73
$$

WIZ029-030-035-036-043>047-180700-
CENTRAL WISCONSIN

CITY           SKY/WX    TMP DP  RH WIND       PRES   REMARKS
WAUSAU         LGT RAIN  61  61 100 W9        29.71S
6HR MIN TEMP:  61; 6HR MAX TEMP:  66; 6HR PCP: TRACE;

MOSINEE        CLOUDY    61  61 100 W7        29.74S
MARSHFIELD     CLOUDY    62  59  90 NW12G20   29.75S
6HR MIN TEMP:  62; 6HR MAX TEMP:  64; 6HR PCP: TRACE;

STEVENS POINT  LGT RAIN  62  61  99 W9        29.73S
6HR MIN TEMP:  61; 6HR MAX TEMP:  65;

WAUPACA        MOCLDY    67  62  84 W9        29.71R
6HR MIN TEMP:  67; 6HR MAX TEMP:  71;

WAUTOMA        CLOUDY    65  61  87 W12       29.74
6HR MIN TEMP:  64; 6HR MAX TEMP:  67;

WISC RAPIDS    CLOUDY    63  62  97 W12       29.76S
6HR MIN TEMP:  63; 6HR MAX TEMP:  66; 6HR PCP:  0.01;

CAMP DOUGLAS   MOCLDY    64  63  95 W10       29.77S
6HR MIN TEMP:  64; 6HR MAX TEMP:  66;

$$

WIZ011>013-019>022-031-037>040-048>050-180700-
NORTHEAST WISCONSIN

CITY           SKY/WX    TMP DP  RH WIND       PRES   REMARKS
ANTIGO         CLOUDY    59  59  99 NW9G18    29.70S
6HR MIN TEMP:  59; 6HR MAX TEMP:  68;

SHAWANO        CLOUDY    65  59  81 W10G17    29.67S
6HR MIN TEMP:  65; 6HR MAX TEMP:  74; 6HR PCP:  0.01;

OCONTO         CLOUDY    64  60  87 W8        29.62S
6HR MIN TEMP:  64; 6HR MAX TEMP:  70; 6HR PCP:  0.04;

STURGEON BAY   CLOUDY    66  61  84 W15       29.62R
6HR MIN TEMP:  66; 6HR MAX TEMP:  73; 6HR PCP:  0.03;

GREEN BAY      CLOUDY    65  61  87 W14G22    29.66R
6HR MIN TEMP:  65; 6HR MAX TEMP:  73; 6HR PCP:  0.01;

MANITOWOC      CLOUDY    66  58  75 W14G24    29.66R
6HR MIN TEMP:  66; 6HR MAX TEMP:  74; 6HR PCP:  0.03;

APPLETON       PTCLDY    63  55  77 W13       29.67S
CLINTONVILLE   PTCLDY    63  55  77 W7        29.68S
OSHKOSH        CLOUDY    66  61  84 W9        29.69S
6HR MIN TEMP:  65; 6HR MAX TEMP:  70; 6HR PCP: TRACE;

$$

WIZ032>034-041-042-053>061-180700-
SOUTHWEST WISCONSIN

CITY           SKY/WX    TMP DP  RH WIND       PRES   REMARKS
LA CROSSE      CLOUDY    70  63  78 NW13      29.80R
6HR MIN TEMP:  69; 6HR MAX TEMP:  73; 6HR PCP:  0.01;

SPARTA         CLOUDY    65  60  84 NW9       29.80S
6HR MIN TEMP:  65; 6HR MAX TEMP:  67;

VIROQUA        CLOUDY    64  64 100 W6        29.82S
6HR MIN TEMP:  64; 6HR MAX TEMP:  67;

BOSCOBEL       CLOUDY    70  64  81 SW5       29.80S
6HR MIN TEMP:  70; 6HR MAX TEMP:  74; 6HR PCP: TRACE;

PRAIRIE DU CHI MOCLDY    67  61  81 NW6       29.82R
6HR MIN TEMP:  67; 6HR MAX TEMP:  74;

PLATTEVILLE    CLEAR     65  65 100 W8        29.82S
6HR MIN TEMP:  65; 6HR MAX TEMP:  71; 6HR PCP:  0.01;

$$

WIZ056-057-062-063-064-067-068-180700-
SOUTH CENTRAL WISCONSIN

CITY           SKY/WX    TMP DP  RH WIND       PRES   REMARKS
REEDSBURG      CLOUDY    65  63  91 NW8       29.77S
6HR MIN TEMP:  65; 6HR MAX TEMP:  67;

BARABOO/DELLS  CLOUDY    65  60  81 NW9G16    29.77S
6HR MIN TEMP:  65; 6HR MAX TEMP:  67;

LONE ROCK      PTCLDY    66  64  93 W9        29.79S
6HR MIN TEMP:  66; 6HR MAX TEMP:  71; 6HR PCP:  0.01;

MINERAL POINT  CLOUDY    68  68 100 W3        29.81S
MADISON        PTCLDY    66  61  84 VRB5      29.76S
6HR MIN TEMP:  66; 6HR MAX TEMP:  68; 6HR PCP: TRACE;

MIDDLETON      MOCLDY    67  62  86 W10       29.78S
6HR MIN TEMP:  67; 6HR MAX TEMP:  69;

WATERTOWN      CLOUDY    66  63  91 W9        29.75S
6HR MIN TEMP:  65; 6HR MAX TEMP:  71; 6HR PCP:  0.01;

MONROE         CLOUDY    64  63  94 W8        29.80S
JANESVILLE     PTCLDY    66  64  94 W9        29.77S
$$

WIZ051-052-058>065-066-070>072-180700-
SOUTHEAST WISCONSIN

CITY           SKY/WX    TMP DP  RH WIND       PRES   REMARKS
MILWAUKEE      PTCLDY    69  61  75 W13G22    29.72S
6HR MIN TEMP:  69; 6HR MAX TEMP:  77;

WAUKESHA       MOCLDY    63  59  88 W13G18    29.75R
MILWAUKEE/TIMM MOCLDY    64  57  77 W13       29.73S
RACINE         CLEAR     68  62  81 W14       29.75S
6HR MIN TEMP:  68; 6HR MAX TEMP:  74;

KENOSHA        CLOUDY    69  61  75 W12G20    29.75R
6HR MIN TEMP:  69; 6HR MAX TEMP:  76;

FOND DU LAC    CLOUDY    67  60  78 W12       29.71S
6HR MIN TEMP:  66; 6HR MAX TEMP:  73; 6HR PCP: TRACE;

SHEBOYGAN      MOCLDY    66  62  87 W13       29.68R
6HR MIN TEMP:  66; 6HR MAX TEMP:  73; 6HR PCP: TRACE;

WEST BEND      CLOUDY    64  61  88 W10G16    29.71S
JUNEAU         CLOUDY    65  61  87 W8        29.75S
6HR MIN TEMP:  64; 6HR MAX TEMP:  70;

$$

LSZ147-162-180700-
LAKE SUPERIOR

STATION/POSITION TIME  TEMP    WIND        PRES    WAVE
                       AIR SEA DIR/SP/G            HT/PER
                 (UTC) (F)     (DEG/KT/KT) (MB)    (FT/S)
W MID LAKE BUOY  0550   61 60  310/ 14/ 16 1004.6R   3/ 6
DEVILS ISLAND    0600   63     320/ 16/ 17 1006.4F
SAXON HARBOR     0540   64     280/  8/ 11 1006.4R
$$

LMZ867-665-643>646-180700-
LAKE MICHIGAN

STATION/POSITION TIME  TEMP    WIND        PRES    WAVE
                       AIR SEA DIR/SP/G            HT/PER
                 (UTC) (F)     (DEG/KT/KT) (MB)    (FT/S)
S GREEN BAY BUOY 0600   66 71  280/ 17/ 21 1003.2
N MID LAKE BUOY  0550   68 67  250/ 16/ 17 1000.1R   4/



USA.gov is the U.S. government's official web portal to all federal, state and local government web resources and services.